Location: Chandler
(33.3060°N, 111.8410°W)
Time: 15:14:59
(UTC-07:00)

Amateur Radio Satellites - All Passes

Search period start: 01 August 2015 14:44
Search period end: 02 August 2015 14:44
Location: Chandler, 33.3060°N, 111.8410°W

Satellite Date Start Highest point End Downlink Frequencies (MHz)
Time Altitude Azimuth
STARS 01 Aug 14:51:05 14:53:44 16° 93° (E) 14:56:36 437.465
SWISSCUBE 01 Aug 14:53:48 14:58:07 34° 288° (WNW) 15:02:22 437.505
JAS-2 01 Aug 14:55:47 15:01:40 77° 76° (ENE) 15:08:26 435.910
Gurwin Techsat 1B 01 Aug 15:09:12 15:13:30 24° 266° (W) 15:17:40 435.225
ITUPSAT 1 01 Aug 15:15:27 15:19:16 23° 290° (WNW) 15:22:57 437.325
KKS-1 01 Aug 15:17:39 15:22:04 61° 101° (E) 15:26:29 437.445
HORYU 2 01 Aug 15:17:59 15:22:14 48° 74° (ENE) 15:26:33 437.375
GONETS M04 01 Aug 15:25:14 15:28:51 14° 63° (ENE) 15:33:12
ITAMSAT 1 01 Aug 15:29:44 15:33:05 16° 268° (W) 15:36:11 435.822/435.867
AO-7 01 Aug 15:54:46 16:03:08 74° 256° (WSW) 16:11:31 29.400- 29.500
DANDE 01 Aug 15:58:05 16:02:03 42° 262° (W) 16:07:13 436.750
Cosmos 2504 01 Aug 16:04:06 16:07:46 13° 279° (W) 16:10:42 435.465 / 435.565
MOZHAYETS 4 01 Aug 16:12:09 16:16:00 26° 95° (E) 16:19:52
CUSAT 1 01 Aug 16:15:36 16:19:09 20° 264° (W) 16:23:09 437.405
STARS 01 Aug 16:26:16 16:30:19 35° 287° (WNW) 16:34:20 437.465
JAS-2 01 Aug 16:45:18 16:47:52 12° 275° (W) 16:50:03 435.910
Cosmos 2499 01 Aug 16:48:56 16:48:58 10° 60° (ENE) 16:49:55 435.465 / 435.565
KKS-1 01 Aug 16:57:19 16:58:15 10° 293° (WNW) 16:58:53 437.445
HORYU 2 01 Aug 16:57:23 16:59:12 12° 269° (W) 17:00:45 437.375
CUTE-I 01 Aug 16:59:59 17:03:45 20° 68° (ENE) 17:07:41 437.470
GONETS M04 01 Aug 17:18:29 17:27:15 85° 83° (E) 17:36:02
VERMONT LUNAR 01 Aug 17:19:19 17:22:29 72° 152° (SSE) 17:25:39 437.305
Cubesat XI-IV 01 Aug 17:42:32 17:47:45 54° 74° (ENE) 17:52:59 437.490
PHONESAT 2.4 01 Aug 17:43:42 17:45:16 13° 141° (SE) 17:46:56 2401.200-2431.200
MOZHAYETS 4 01 Aug 17:49:22 17:53:07 24° 289° (WNW) 17:56:44
SO-50 01 Aug 17:51:05 17:55:47 43° 56° (ENE) 18:00:23 436.795
AO-7 01 Aug 17:56:25 17:57:24 10° 273° (W) 17:57:27 29.400- 29.500
PCSat 01 Aug 18:06:07 18:11:24 53° 61° (ENE) 18:16:41 145.827
CUBESAT XI-V 01 Aug 18:07:22 18:11:37 37° 97° (E) 18:15:53 437.345
BRITE-PL 01 Aug 18:29:22 18:31:42 15° 71° (ENE) 18:34:09 437.365/2234.400
Cosmos 2499 01 Aug 18:35:21 18:44:06 66° 81° (E) 18:52:54 435.465 / 435.565
CUTE-I 01 Aug 18:38:28 18:43:33 42° 261° (W) 18:48:37 437.470
STRAND 1 01 Aug 18:51:14 18:55:41 31° 96° (E) 19:00:12 437.568
HO-68 01 Aug 18:55:11 18:59:59 21° 63° (ENE) 19:05:05 435.675
VERMONT LUNAR 01 Aug 18:56:35 18:59:23 28° 347° (NNW) 19:02:12 437.305
PRISM 01 Aug 18:57:58 19:01:24 26° 96° (E) 19:04:52 437.425
ISS 01 Aug 19:03:52 19:05:46 15° 128° (SE) 19:07:46 145.825
GONETS M04 01 Aug 19:18:21 19:23:11 15° 278° (W) 19:27:22
PHONESAT 2.4 01 Aug 19:19:23 19:22:53 83° 153° (SSE) 19:26:24 2401.200-2431.200
Cubesat XI-IV 01 Aug 19:25:03 19:28:14 15° 269° (W) 19:31:08 437.490
SO-50 01 Aug 19:32:39 19:36:01 18° 250° (WSW) 19:39:09 436.795
CUBESAT XI-V 01 Aug 19:45:44 19:48:48 17° 290° (WNW) 19:51:40 437.345
PCSat 01 Aug 19:51:02 19:54:26 16° 254° (WSW) 19:57:34 145.827
COMPASS 1 01 Aug 19:53:43 19:56:53 22° 72° (ENE) 20:00:12 437.405
DOVE 4 01 Aug 19:58:23 20:02:25 51° 76° (ENE) 20:06:28 437.250
CINEMA 3 01 Aug 20:03:36 20:06:50 23° 72° (ENE) 20:10:12 145.822/145.860
RS-15 01 Aug 20:04:21 20:14:02 41° 109° (ESE) 20:24:09 29.354- 29.394
BRITE-PL 01 Aug 20:05:53 20:10:03 37° 262° (W) 20:14:00 437.365/2234.400
SEEDS 01 Aug 20:08:58 20:12:58 43° 75° (ENE) 20:17:02 437.485
CUTE 1.7 + AOD 2 01 Aug 20:12:44 20:16:56 62° 76° (ENE) 20:21:11 437.475
GOMX 1 01 Aug 20:13:06 20:17:19 55° 260° (W) 20:21:24 467.674
UWE-3 01 Aug 20:15:47 20:16:14 10° 67° (ENE) 20:16:57 435.000/436.395/437.385
Oscar 11 01 Aug 20:21:04 20:23:45 17° 70° (ENE) 20:26:37 145.826/435.025
CANX-2 01 Aug 20:21:10 20:25:25 90° 256° (WSW) 20:29:44 2200.000
CUBEBUG 2 01 Aug 20:30:01 20:33:05 21° 71° (ENE) 20:36:19 437.445
Cosmos 2499 01 Aug 20:30:02 20:36:41 23° 275° (W) 20:42:54 435.465 / 435.565
STRAND 1 01 Aug 20:30:37 20:34:46 25° 290° (WNW) 20:38:48 437.568
AAUSAT CUBESAT 2 01 Aug 20:33:32 20:37:37 56° 76° (ENE) 20:41:45 437.432
PRISM 01 Aug 20:33:43 20:36:40 19° 290° (WNW) 20:39:31 437.425
VERMONT LUNAR 01 Aug 20:34:07 20:36:40 22° 4° (N) 20:39:14 437.305
ISS 01 Aug 20:38:57 20:41:59 36° 321° (NW) 20:45:02 145.825
HO-68 01 Aug 20:40:05 20:47:10 66° 257° (WSW) 20:54:17 435.675
PHONESAT 2.4 01 Aug 20:57:57 21:01:05 29° 349° (N) 21:04:13 2401.200-2431.200
ZACube-1 01 Aug 21:22:39 21:26:42 52° 76° (ENE) 21:30:52 437.345
M-CUBED/EXP-1 PRIME 01 Aug 21:24:29 21:28:23 26° 99° (E) 21:32:15 437.505
Cosmos 2491 01 Aug 21:28:39 21:30:44 11° 61° (ENE) 21:33:40 435.465 / 435.565
COMPASS 1 01 Aug 21:28:59 21:32:27 24° 265° (W) 21:35:52 437.405
50 SAT 01 Aug 21:40:40 21:42:20 13° 70° (ENE) 21:44:12 437.505
CINEMA 3 01 Aug 21:40:49 21:44:01 21° 266° (W) 21:47:09 145.822/145.860
FUNcube-1 01 Aug 21:43:52 21:48:03 86° 262° (W) 21:52:19 145.935
TIGRISAT 01 Aug 21:46:38 21:47:36 11° 90° (E) 21:48:55 435.000
SEEDS 01 Aug 21:47:15 21:49:02 12° 269° (W) 21:50:34 437.485
ANTELSAT 01 Aug 21:48:07 21:49:48 12° 90° (E) 21:51:47 437.575/2403.000
UWE-3 01 Aug 21:48:15 21:52:19 53° 261° (W) 21:56:28 435.000/436.395/437.385
DELFI C3 01 Aug 21:49:41 21:53:41 59° 260° (W) 21:57:43 145.870
AUBIESAT-1 01 Aug 21:52:40 21:57:11 45° 103° (ESE) 22:01:32 437.475
Oscar 11 01 Aug 21:55:45 21:59:42 34° 263° (W) 22:03:38 145.826/435.025
UKube-1 01 Aug 21:57:11 22:01:00 32° 72° (ENE) 22:04:53 .
HUMSAT D 01 Aug 22:03:05 22:07:09 62° 76° (ENE) 22:11:17 437.325/437.525
AISAT 01 Aug 22:05:22 22:08:59 26° 72° (ENE) 22:12:40 437.250
CUBEBUG 2 01 Aug 22:06:14 22:09:41 24° 265° (W) 22:13:07 437.445
BEESAT 2 01 Aug 22:09:05 22:11:55 19° 111° (ESE) 22:14:53 435.950
VERMONT LUNAR 01 Aug 22:10:43 22:13:49 49° 20° (NNE) 22:16:53 437.305
RS-15 01 Aug 22:15:43 22:26:14 50° 308° (NW) 22:37:00 29.354- 29.394
CUBEBUG 1 01 Aug 22:17:43 22:20:43 19° 70° (ENE) 22:23:50 437.445
DX 1 01 Aug 22:25:57 22:30:17 83° 77° (ENE) 22:34:38 434.975-435.025
POLYITAN 1 01 Aug 22:26:43 22:27:11 10° 90° (E) 22:27:59 437.675
AIST 1 01 Aug 22:28:44 22:32:24 28° 78° (ENE) 22:36:06
PHONESAT 2.4 01 Aug 22:36:39 22:39:38 25° 6° (N) 22:42:38 2401.200-2431.200
UNISAT 6 01 Aug 22:37:13 22:41:45 46° 99° (E) 22:46:16 437.425
POPSAT HIP 1 01 Aug 22:41:31 22:44:07 16° 93° (E) 22:46:55 437.405
VELOX 1 01 Aug 22:43:17 22:47:40 72° 77° (ENE) 22:52:04 145.980
BEESAT 3 01 Aug 22:46:27 22:50:29 75° 117° (ESE) 22:54:34 437.485
QB50P2 01 Aug 22:48:54 22:52:06 21° 95° (E) 22:55:25 145.880/145.840
SPROUT 01 Aug 22:51:59 22:53:37 12° 69° (ENE) 22:55:28 437.525
ESTCUBE 1 01 Aug 22:58:02 23:02:32 72° 77° (ENE) 23:07:04 437.505/2401.250
M-CUBED/EXP-1 PRIME 01 Aug 22:58:58 23:03:05 28° 293° (WNW) 23:07:02 437.505
DUCHIFAT 1 01 Aug 23:11:56 23:15:51 37° 98° (E) 23:19:49 145.980
50 SAT 01 Aug 23:13:02 23:16:36 35° 262° (W) 23:20:12 437.505
QB50P1 01 Aug 23:15:45 23:19:49 43° 99° (E) 23:23:54 145.935-145.965
NANOSAT C BR1 01 Aug 23:16:38 23:20:41 43° 99° (E) 23:24:46 145.865
TIGRISAT 01 Aug 23:20:08 23:24:47 59° 284° (WNW) 23:29:24 435.000
Cosmos 2491 01 Aug 23:20:41 23:29:25 76° 82° (E) 23:38:08 435.465 / 435.565
ANTELSAT 01 Aug 23:22:20 23:26:57 54° 285° (WNW) 23:31:31 437.575/2403.000
AUBIESAT-1 01 Aug 23:28:26 23:31:30 17° 297° (WNW) 23:34:19 437.475
UKube-1 01 Aug 23:34:19 23:37:14 17° 266° (W) 23:39:57 .
YUBILEINY 01 Aug 23:36:24 23:44:34 49° 90° (E) 23:52:53 435.215
AISAT 01 Aug 23:42:03 23:45:32 22° 265° (W) 23:48:54 437.250
BEESAT 2 01 Aug 23:46:09 23:49:47 29° 305° (NW) 23:53:24 435.950
AIST 2 01 Aug 23:46:10 23:50:16 52° 115° (ESE) 23:54:25 435.215
VERMONT LUNAR 01 Aug 23:47:45 23:50:24 24° 215° (SW) 23:53:01 437.305
CUBEBUG 1 01 Aug 23:53:01 23:56:54 30° 263° (W) 00:00:42 437.445
POLYITAN 1 01 Aug 23:59:16 00:03:26 51° 285° (WNW) 00:07:35 437.675
AIST 1 02 Aug 00:07:02 00:09:51 17° 271° (W) 00:12:29
PHONESAT 2.4 02 Aug 00:14:32 00:18:00 61° 22° (NNE) 00:21:27 2401.200-2431.200
UNISAT 6 02 Aug 00:15:23 00:18:10 15° 291° (WNW) 00:20:45 437.425
BUGSAT 1 02 Aug 00:15:27 00:19:26 54° 285° (WNW) 00:23:27 437.445
POPSAT HIP 1 02 Aug 00:16:16 00:20:06 33° 287° (WNW) 00:23:54 437.405
SWISSCUBE 02 Aug 00:20:21 00:22:54 15° 68° (ENE) 00:25:41 437.505
QB50P2 02 Aug 00:24:23 00:27:57 26° 288° (WNW) 00:31:27 145.880/145.840
SPROUT 02 Aug 00:25:14 00:29:20 45° 261° (W) 00:33:26 437.525
TISAT 1 02 Aug 00:33:23 00:37:31 62° 259° (W) 00:41:39 437.305
RS-15 02 Aug 00:36:45 00:42:34 15° 337° (NNW) 00:48:00 29.354- 29.394
ITUPSAT 1 02 Aug 00:40:37 00:44:14 22° 70° (ENE) 00:47:58 437.325
Oscar 19 02 Aug 00:44:06 00:46:40 14° 91° (E) 00:49:33 437.125/150
DUCHIFAT 1 02 Aug 00:48:53 00:51:23 15° 290° (WNW) 00:53:42 145.980
QB50P1 02 Aug 00:53:17 00:55:20 13° 291° (WNW) 00:57:10 145.935-145.965
NANOSAT C BR1 02 Aug 00:54:10 00:56:11 13° 291° (WNW) 00:57:58 145.865
JUGNU 02 Aug 01:13:41 01:14:52 11° 164° (SSE) 01:16:12 437.505
O/OREOS (USA 219) 02 Aug 01:16:31 01:20:56 63° 291° (WNW) 01:25:23 437.305
Cosmos 2491 02 Aug 01:19:55 01:25:30 18° 277° (W) 01:30:30 435.465 / 435.565
AIST 2 02 Aug 01:26:54 01:29:11 14° 312° (NW) 01:31:18 435.215
YUBILEINY 02 Aug 01:34:11 01:41:43 31° 288° (WNW) 01:49:03 435.215
BEESAT 02 Aug 01:34:50 01:39:37 89° 93° (E) 01:44:27 436.000
Gurwin Techsat 1B 02 Aug 01:49:50 01:53:27 19° 93° (E) 01:57:15 435.225
PHONESAT 2.4 02 Aug 01:52:59 01:55:47 22° 216° (SW) 01:58:33 2401.200-2431.200
SWISSCUBE 02 Aug 01:55:45 02:00:24 48° 261° (W) 02:05:02 437.505
ITAMSAT 1 02 Aug 02:06:00 02:10:03 24° 95° (E) 02:14:14 435.822/435.867
JAS-2 02 Aug 02:11:18 02:15:43 17° 87° (E) 02:20:33 435.910
KKS-1 02 Aug 02:11:58 02:15:52 32° 72° (ENE) 02:19:50 437.445
ITUPSAT 1 02 Aug 02:17:39 02:21:58 31° 263° (W) 02:26:13 437.325
Oscar 19 02 Aug 02:21:21 02:26:24 54° 286° (WNW) 02:31:26 437.125/150
Cosmos 2504 02 Aug 02:33:27 02:40:29 84° 95° (E) 02:48:04 435.465 / 435.565
RS-15 02 Aug 02:58:37 03:02:16 12° 15° (NNE) 03:06:23 29.354- 29.394
JUGNU 02 Aug 02:59:11 03:03:15 19° 172° (S) 03:07:21 437.505
SRMSAT 02 Aug 03:07:05 03:08:33 11° 164° (SSE) 03:10:10 437.500
ISS 02 Aug 03:09:44 03:12:41 31° 38° (NE) 03:15:39 145.825
MOZHAYETS 4 02 Aug 03:11:01 03:13:46 16° 69° (ENE) 03:16:44
HORYU 2 02 Aug 03:15:06 03:17:05 13° 91° (E) 03:19:20 437.375
STARS 02 Aug 03:18:27 03:22:48 69° 258° (WSW) 03:27:09 437.465
DANDE 02 Aug 03:26:02 03:27:59 15° 98° (E) 03:29:51 436.750
Gurwin Techsat 1B 02 Aug 03:28:38 03:33:39 42° 287° (WNW) 03:38:36 435.225
CUSAT 1 02 Aug 03:37:47 03:40:41 40° 97° (E) 03:43:14 437.405
ITAMSAT 1 02 Aug 03:45:00 03:49:37 33° 289° (WNW) 03:54:09 435.822/435.867
KKS-1 02 Aug 03:49:32 03:52:36 18° 267° (W) 03:55:30 437.445
JAS-2 02 Aug 03:53:42 04:01:37 82° 284° (WNW) 04:09:15 435.910
AO-7 02 Aug 04:01:19 04:09:19 50° 101° (E) 04:17:19 29.400- 29.500
GONETS M04 02 Aug 04:21:22 04:26:31 18° 83° (E) 04:32:12
Cosmos 2504 02 Aug 04:30:27 04:33:59 13° 296° (WNW) 04:37:02 435.465 / 435.565
MOZHAYETS 4 02 Aug 04:46:19 04:50:42 40° 262° (W) 04:55:04
ISS 02 Aug 04:46:40 04:48:58 18° 231° (SW) 04:51:12 145.825
JUGNU 02 Aug 04:47:15 04:51:40 22° 182° (S) 04:56:04 437.505
HORYU 2 02 Aug 04:49:41 04:54:00 45° 286° (WNW) 04:58:16 437.375
SRMSAT 02 Aug 04:53:01 04:57:05 19° 173° (S) 05:01:11 437.500
CUBESAT XI-V 02 Aug 05:07:06 05:10:45 24° 71° (ENE) 05:14:30 437.345
RS-15 02 Aug 05:09:23 05:19:51 37° 46° (NE) 05:30:53 29.354- 29.394
DANDE 02 Aug 05:09:33 05:11:00 12° 282° (WNW) 05:12:13 436.750
JAS-2 02 Aug 05:41:24 05:45:39 15° 299° (WNW) 05:49:22 435.910
PRISM 02 Aug 05:45:44 05:47:18 12° 68° (ENE) 05:49:06 437.425
AO-7 02 Aug 05:54:40 06:01:50 32° 297° (WNW) 06:08:46 29.400- 29.500
STRAND 1 02 Aug 06:03:09 06:07:32 30° 71° (ENE) 06:12:01 437.568
Cubesat XI-IV 02 Aug 06:04:29 06:09:05 30° 96° (E) 06:13:44 437.490
GONETS M04 02 Aug 06:13:53 06:22:36 74° 278° (W) 06:31:18
JUGNU 02 Aug 06:36:32 06:40:04 16° 192° (SSW) 06:43:31 437.505
SRMSAT 02 Aug 06:41:15 06:45:39 21° 182° (S) 06:50:01 437.500
CUBESAT XI-V 02 Aug 06:44:02 06:48:05 28° 264° (W) 06:52:03 437.345
CUTE-I 02 Aug 06:59:31 07:04:50 76° 285° (WNW) 07:10:07 437.470
PCSat 02 Aug 07:04:11 07:05:47 12° 105° (ESE) 07:07:45 145.827
Cosmos 2499 02 Aug 07:07:01 07:14:05 56° 92° (E) 07:21:45 435.465 / 435.565
BEESAT 3 02 Aug 07:10:18 07:12:14 13° 49° (NE) 07:14:20 437.485
PRISM 02 Aug 07:18:21 07:22:23 45° 260° (W) 07:26:24 437.425
RS-15 02 Aug 07:21:24 07:33:09 65° 247° (WSW) 07:45:07 29.354- 29.394
STRAND 1 02 Aug 07:42:25 07:46:44 26° 265° (W) 07:50:57 437.568
Cubesat XI-IV 02 Aug 07:44:37 07:49:07 28° 290° (WNW) 07:53:29 437.490
DOVE 4 02 Aug 08:01:12 08:04:47 22° 95° (E) 08:08:39 437.250
SO-50 02 Aug 08:01:26 08:05:40 35° 113° (ESE) 08:10:06 436.795
CUTE 1.7 + AOD 2 02 Aug 08:03:32 08:05:54 15° 92° (E) 08:08:27 437.475
BEESAT 2 02 Aug 08:08:33 08:12:25 43° 58° (ENE) 08:16:15 435.950
M-CUBED/EXP-1 PRIME 02 Aug 08:09:26 08:11:51 16° 63° (ENE) 08:14:33 437.505
CANX-2 02 Aug 08:11:24 08:14:37 21° 94° (E) 08:17:57 2200.000
HO-68 02 Aug 08:12:54 08:18:59 31° 96° (E) 08:25:15 435.675
BRITE-PL 02 Aug 08:13:18 08:17:48 87° 99° (E) 08:22:41 437.365/2234.400
AIST 2 02 Aug 08:13:53 08:15:07 11° 47° (NE) 08:16:32 435.215
GOMX 1 02 Aug 08:17:51 08:22:25 55° 100° (E) 08:27:18 467.674
GONETS M04 02 Aug 08:18:45 08:21:17 11° 299° (WNW) 08:22:58
AAUSAT CUBESAT 2 02 Aug 08:22:35 08:24:09 12° 91° (E) 08:25:59 437.432
SRMSAT 02 Aug 08:30:45 08:34:11 16° 192° (SSW) 08:37:33 437.500
AUBIESAT-1 02 Aug 08:36:26 08:39:50 27° 66° (ENE) 08:43:33 437.475
PCSat 02 Aug 08:43:16 08:48:40 71° 297° (WNW) 08:54:06 145.827
BEESAT 3 02 Aug 08:46:36 08:50:28 45° 245° (WSW) 08:54:15 437.485
Cosmos 2499 02 Aug 09:02:08 09:07:53 22° 291° (WNW) 09:13:36 435.465 / 435.565
COMPASS 1 02 Aug 09:15:32 09:19:46 72° 101° (E) 09:23:56 437.405
ZACube-1 02 Aug 09:16:27 09:19:03 15° 92° (E) 09:21:53 437.345
SEEDS 02 Aug 09:32:50 09:36:59 52° 285° (WNW) 09:41:05 437.485
UNISAT 6 02 Aug 09:32:50 09:36:15 23° 71° (ENE) 09:39:49 437.425
DELFI C3 02 Aug 09:33:19 09:36:34 24° 95° (E) 09:39:53 145.870
FUNcube-1 02 Aug 09:36:35 09:40:21 26° 95° (E) 09:44:13 145.935
CINEMA 3 02 Aug 09:37:45 09:42:31 74° 283° (WNW) 09:47:27 145.822/145.860
CUTE 1.7 + AOD 2 02 Aug 09:38:01 09:41:58 35° 286° (WNW) 09:45:51 437.475
DOVE 4 02 Aug 09:38:21 09:42:33 32° 286° (WNW) 09:46:54 437.250
UWE-3 02 Aug 09:41:51 09:46:14 41° 98° (E) 09:50:40 435.000/436.395/437.385
SO-50 02 Aug 09:42:29 09:46:20 23° 309° (NW) 09:50:09 436.795
M-CUBED/EXP-1 PRIME 02 Aug 09:42:38 09:46:18 36° 259° (W) 09:50:15 437.505
Oscar 11 02 Aug 09:46:45 09:51:02 58° 100° (E) 09:55:19 145.826/435.025
CANX-2 02 Aug 09:46:56 09:50:31 25° 288° (WNW) 09:54:00 2200.000
BEESAT 2 02 Aug 09:48:27 09:50:06 12° 251° (WSW) 09:51:33 435.950
AIST 2 02 Aug 09:50:02 09:54:09 62° 244° (WSW) 09:58:11 435.215
HUMSAT D 02 Aug 09:52:34 09:54:52 15° 92° (E) 09:57:23 437.325/437.525
YUBILEINY 02 Aug 09:53:06 09:58:39 19° 67° (ENE) 10:04:43 435.215
O/OREOS (USA 219) 02 Aug 09:54:28 09:55:07 10° 56° (NE) 09:56:03 437.305
AAUSAT CUBESAT 2 02 Aug 09:56:02 10:00:00 41° 286° (WNW) 10:03:55 437.432
GOMX 1 02 Aug 09:58:08 10:00:15 13° 290° (WNW) 10:02:08 467.674
CUBEBUG 2 02 Aug 09:59:56 10:04:38 88° 93° (E) 10:09:24 437.445
HO-68 02 Aug 10:00:08 10:06:51 43° 291° (WNW) 10:13:29 435.675
DUCHIFAT 1 02 Aug 10:01:21 10:03:56 17° 70° (ENE) 10:06:38 145.980
QB50P1 02 Aug 10:05:17 10:08:13 19° 71° (ENE) 10:11:18 145.935-145.965
NANOSAT C BR1 02 Aug 10:05:57 10:08:53 19° 71° (ENE) 10:11:57 145.865
AUBIESAT-1 02 Aug 10:11:36 10:14:35 20° 263° (W) 10:17:39 437.475
TIGRISAT 02 Aug 10:14:36 10:18:53 72° 76° (ENE) 10:23:18 435.000
ANTELSAT 02 Aug 10:16:57 10:21:17 81° 77° (ENE) 10:25:44 437.575/2403.000
DX 1 02 Aug 10:19:19 10:22:23 19° 94° (E) 10:25:35 434.975-435.025
Cosmos 2491 02 Aug 10:24:29 10:28:53 16° 82° (E) 10:33:56 435.465 / 435.565
VELOX 1 02 Aug 10:38:51 10:41:52 19° 94° (E) 10:45:02 145.980
POLYITAN 1 02 Aug 10:47:47 10:51:56 67° 76° (ENE) 10:56:08 437.675
ZACube-1 02 Aug 10:51:18 10:55:35 40° 286° (WNW) 10:59:52 437.345
50 SAT 02 Aug 10:52:19 10:55:53 32° 97° (E) 10:59:28 437.505
AIST 1 02 Aug 10:54:14 10:57:28 21° 90° (E) 11:00:49
ESTCUBE 1 02 Aug 10:55:47 10:59:03 20° 94° (E) 11:02:28 437.505/2401.250
BUGSAT 1 02 Aug 11:01:11 11:05:08 54° 76° (ENE) 11:09:04 437.445
POPSAT HIP 1 02 Aug 11:04:16 11:08:27 77° 258° (WSW) 11:12:39 437.405
DELFI C3 02 Aug 11:08:29 11:11:31 20° 289° (WNW) 11:14:25 145.870
UNISAT 6 02 Aug 11:09:24 11:12:57 24° 265° (W) 11:16:30 437.425
QB50P2 02 Aug 11:12:21 11:16:29 58° 259° (W) 11:20:39 145.880/145.840
FUNcube-1 02 Aug 11:12:51 11:16:34 24° 288° (WNW) 11:20:13 145.935
UWE-3 02 Aug 11:19:31 11:22:27 16° 290° (WNW) 11:25:13 435.000/436.395/437.385
UKube-1 02 Aug 11:24:06 11:28:25 74° 283° (WNW) 11:32:42 .
Oscar 11 02 Aug 11:26:00 11:26:46 10° 292° (WNW) 11:27:16 145.826/435.025
HUMSAT D 02 Aug 11:26:45 11:30:47 37° 286° (WNW) 11:34:45 437.325/437.525
O/OREOS (USA 219) 02 Aug 11:30:32 11:35:06 67° 253° (WSW) 11:39:39 437.305
AISAT 02 Aug 11:35:32 11:39:58 85° 282° (WNW) 11:44:23 437.250
DUCHIFAT 1 02 Aug 11:35:45 11:39:30 31° 263° (W) 11:43:14 145.980
QB50P1 02 Aug 11:40:20 11:43:56 27° 264° (W) 11:47:29 145.935-145.965
NANOSAT C BR1 02 Aug 11:40:59 11:44:34 27° 264° (W) 11:48:06 145.865
CUBEBUG 1 02 Aug 11:45:17 11:49:35 66° 101° (E) 11:53:54 437.445
YUBILEINY 02 Aug 11:47:43 11:56:34 77° 265° (W) 12:05:21 435.215
DX 1 02 Aug 11:54:54 11:58:40 29° 288° (WNW) 12:02:21 434.975-435.025
Oscar 19 02 Aug 11:57:31 12:00:03 14° 67° (ENE) 12:02:51 437.125/150
VELOX 1 02 Aug 12:14:35 12:18:29 30° 288° (WNW) 12:22:19 145.980
SPROUT 02 Aug 12:15:52 12:19:54 40° 98° (E) 12:23:58 437.525
Cosmos 2491 02 Aug 12:16:04 12:24:52 83° 277° (W) 12:33:40 435.465 / 435.565
TISAT 1 02 Aug 12:22:14 12:25:48 27° 96° (E) 12:29:26 437.305
Cosmos 2504 02 Aug 12:25:01 12:31:09 23° 70° (ENE) 12:37:45 435.465 / 435.565
50 SAT 02 Aug 12:27:53 12:30:12 15° 290° (WNW) 12:32:21 437.505
AIST 1 02 Aug 12:31:27 12:35:02 24° 284° (WNW) 12:38:29
ESTCUBE 1 02 Aug 12:32:04 12:35:57 29° 288° (WNW) 12:39:45 437.505/2401.250
Gurwin Techsat 1B 02 Aug 13:07:03 13:10:52 21° 69° (ENE) 13:14:51 435.225
ITAMSAT 1 02 Aug 13:20:05 13:24:12 25° 69° (ENE) 13:28:26 435.822/435.867
Oscar 19 02 Aug 13:33:58 13:38:59 57° 260° (W) 13:44:01 437.125/150
BEESAT 02 Aug 13:39:40 13:43:53 31° 97° (E) 13:48:08 436.000
YUBILEINY 02 Aug 13:49:57 13:52:13 11° 280° (W) 13:53:35 435.215
SPROUT 02 Aug 13:53:18 13:55:41 14° 291° (WNW) 13:57:52 437.525
TISAT 1 02 Aug 13:58:18 14:01:25 20° 289° (WNW) 14:04:24 437.305
SWISSCUBE 02 Aug 14:00:06 14:04:48 60° 100° (E) 14:09:30 437.505
JAS-2 02 Aug 14:02:06 14:07:04 28° 66° (ENE) 14:12:44 435.910
DANDE 02 Aug 14:07:07 14:09:01 13° 77° (ENE) 14:11:24 436.750
CUSAT 1 02 Aug 14:14:27 14:18:30 29° 80° (E) 14:23:41 437.405
Cosmos 2504 02 Aug 14:15:38 14:24:04 67° 267° (W) 14:32:34 435.465 / 435.565
Cosmos 2491 02 Aug 14:19:09 14:23:20 13° 297° (WNW) 14:26:45 435.465 / 435.565
ITUPSAT 1 02 Aug 14:21:47 14:26:35 88° 282° (WNW) 14:31:20 437.325
